| time (UTC) | temp C | wind direction | speed KPH | gust KPH | rain 1hr cm | rain 24hr cm | rain mn cm | humidity % | barometer mb |
| 20260504004612 | 13 | 254 | 6.4 | 12.9 | 0.00 | 0.00 | 0.00 | 73 | 1035.2 |
| 20260504003609 | 13 | 328 | 6.4 | 12.9 | 0.00 | 0.00 | 0.00 | 73 | 1035.2 |
| 20260504002607 | 13 | 252 | 8.0 | 17.7 | 0.00 | 0.00 | 0.00 | 73 | 1035.3 |
| 20260504001605 | 13 | 289 | 9.7 | 25.7 | 0.00 | 0.00 | 0.00 | 71 | 1035.4 |
| 20260504000627 | 13 | 296 | 6.4 | 17.7 | 0.00 | 0.00 | 0.00 | 73 | 1035.7 |
| 20260503235640 | 13 | 254 | 4.8 | 12.9 | 0.00 | 0.00 | 0.00 | 72 | 1035.7 |
| 20260503234556 | 13 | 301 | 4.8 | 11.3 | 0.00 | 0.00 | 0.00 | 72 | 1035.6 |
| 20260503233554 | 14 | 314 | 4.8 | 14.5 | 0.00 | 0.00 | 0.00 | 73 | 1035.7 |
| 20260503232552 | 13 | 287 | 4.8 | 11.3 | 0.00 | 0.00 | 0.00 | 73 | 1035.8 |
| 20260503231549 | 14 | 272 | 6.4 | 12.9 | 0.00 | 0.00 | 0.00 | 73 | 1035.9 |
| 20260503230607 | 13 | 293 | 4.8 | 6.4 | 0.00 | 0.00 | 0.00 | 74 | 1035.9 |
| 20260503225543 | 13 | 253 | 11.3 | 22.5 | 0.00 | 0.00 | 0.00 | 72 | 1036.0 |
| 20260503224542 | 13 | 280 | 11.3 | 22.5 | 0.00 | 0.00 | 0.00 | 73 | 1035.9 |
| 20260503223559 | 13 | 291 | 9.7 | 20.9 | 0.00 | 0.00 | 0.00 | 73 | 1036.0 |
| 20260503222601 | 13 | 263 | 9.7 | 17.7 | 0.00 | 0.00 | 0.00 | 71 | 1036.0 |
| 20260503221538 | 13 | 288 | 8.0 | 22.5 | 0.00 | 0.00 | 0.00 | 72 | 1035.9 |
| 20260503220530 | 14 | 339 | 3.2 | 12.9 | 0.00 | 0.00 | 0.00 | 70 | 1036.0 |
| 20260503215553 | 13 | 334 | 8.0 | 17.7 | 0.00 | 0.00 | 0.00 | 72 | 1036.0 |
| 20260503214526 | 15 | 314 | 6.4 | 17.7 | 0.00 | 0.00 | 0.00 | 71 | 1035.9 |
| 20260503213523 | 13 | 340 | 4.8 | 11.3 | 0.00 | 0.00 | 0.00 | 72 | 1035.8 |
| 20260503212520 | 13 | 341 | 3.2 | 9.7 | 0.00 | 0.00 | 0.00 | 72 | 1035.8 |
| 20260503211518 | 13 | 293 | 3.2 | 11.3 | 0.00 | 0.00 | 0.00 | 75 | 1035.8 |
| 20260503210615 | 12 | 313 | 4.8 | 11.3 | 0.00 | 0.00 | 0.00 | 77 | 1035.8 |
| 20260503205612 | 12 | 22 | 4.8 | 11.3 | 0.00 | 0.00 | 0.00 | 76 | 1035.8 |
| 20260503204611 | 12 | 293 | 4.8 | 11.3 | 0.00 | 0.00 | 0.00 | 76 | 1035.8 |
| 20260503203607 | 12 | 285 | 4.8 | 9.7 | 0.00 | 0.00 | 0.00 | 76 | 1035.7 |
| 20260503202606 | 12 | 334 | 1.6 | 6.4 | 0.00 | 0.00 | 0.00 | 77 | 1035.7 |
| 20260503201602 | 12 | 306 | 1.6 | 3.2 | 0.00 | 0.00 | 0.00 | 78 | 1035.7 |
| 20260503200600 | 12 | 18 | 1.6 | 6.4 | 0.00 | 0.00 | 0.00 | 78 | 1035.6 |
| 20260503195557 | 12 | 20 | 3.2 | 11.3 | 0.00 | 0.00 | 0.00 | 79 | 1035.5 |
| 20260503194555 | 12 | 38 | 1.6 | 6.4 | 0.00 | 0.00 | 0.00 | 79 | 1035.4 |
| 20260503193553 | 12 | 331 | 1.6 | 9.7 | 0.00 | 0.00 | 0.00 | 79 | 1035.3 |
| 20260503192554 | 12 | 17 | 3.2 | 6.4 | 0.00 | 0.00 | 0.00 | 80 | 1035.3 |
| 20260503191547 | 12 | 28 | 3.2 | 12.9 | 0.00 | 0.00 | 0.00 | 82 | 1035.2 |
| 20260503190544 | 12 | 30 | 3.2 | 6.4 | 0.00 | 0.00 | 0.00 | 82 | 1035.3 |
| 20260503185543 | 12 | 88 | 3.2 | 11.3 | 0.00 | 0.00 | 0.00 | 82 | 1035.2 |
| 20260503184539 | 12 | 65 | 3.2 | 6.4 | 0.00 | 0.00 | 0.00 | 81 | 1035.2 |
| 20260503183557 | 11 | 57 | 1.6 | 6.4 | 0.00 | 0.00 | 0.00 | 84 | 1035.2 |
| 20260503182553 | 11 | 38 | 1.6 | 9.7 | 0.00 | 0.00 | 0.00 | 84 | 1035.1 |
| 20260503181530 | 11 | 340 | 3.2 | 11.3 | 0.00 | 0.00 | 0.00 | 84 | 1035.1 |
| 20260503180528 | 11 | 290 | 4.8 | 14.5 | 0.00 | 0.00 | 0.00 | 84 | 1035.1 |
| 20260503175525 | 11 | 26 | 3.2 | 6.4 | 0.00 | 0.03 | 0.00 | 84 | 1035.1 |
| 20260503174523 | 11 | 4 | 4.8 | 17.7 | 0.00 | 0.03 | 0.00 | 83 | 1035.0 |
| 20260503173520 | 11 | 42 | 1.6 | 6.4 | 0.00 | 0.03 | 0.00 | 83 | 1035.0 |
| 20260503172522 | 11 | 75 | 3.2 | 9.7 | 0.00 | 0.03 | 0.00 | 83 | 1035.1 |
| 20260503171620 | 11 | 36 | 1.6 | 6.4 | 0.00 | 0.03 | 0.00 | 82 | 1035.1 |
| 20260503170634 | 12 | 24 | 3.2 | 6.4 | 0.00 | 0.03 | 0.00 | 81 | 1035.0 |
| 20260503150542 | 11 | 52 | 1.6 | 3.2 | 0.00 | 0.03 | 0.00 | 82 | 1035.5 |
| 20260503130611 | 6 | 23 | 1.6 | 3.2 | 0.00 | 0.03 | 0.00 | 96 | 1035.5 |
| 20260503110540 | 5 | 0.0 | 0.0 | 0.00 | 0.03 | 0.03 | 94 | 1035.3 | |
| 20260503081556 | 10 | 270 | 1.6 | 3.2 | 0.00 | 0.03 | 0.03 | 87 | 1034.6 |
| 20260503080553 | 10 | 272 | 1.6 | 9.7 | 0.00 | 0.03 | 0.03 | 86 | 1034.4 |
| 20260503072544 | 11 | 289 | 3.2 | 6.4 | 0.00 | 0.03 | 0.03 | 84 | 1034.5 |
| 20260503071545 | 11 | 316 | 1.6 | 6.4 | 0.00 | 0.03 | 0.03 | 84 | 1034.4 |
| 20260503070539 | 11 | 299 | 1.6 | 6.4 | 0.00 | 0.03 | 0.03 | 84 | 1034.4 |
| 20260503054516 | 12 | 356 | 4.8 | 12.9 | 0.00 | 0.03 | 0.03 | 80 | 1034.3 |
| 20260503053614 | 12 | 81 | 3.2 | 6.4 | 0.00 | 0.03 | 0.03 | 80 | 1034.2 |
| 20260503052623 | 12 | 260 | 4.8 | 11.3 | 0.00 | 0.03 | 0.03 | 79 | 1034.3 |
| 20260503051609 | 12 | 270 | 0.0 | 3.2 | 0.00 | 0.03 | 0.03 | 80 | 1034.2 |
| 20260503050606 | 12 | 281 | 3.2 | 6.4 | 0.00 | 0.03 | 0.03 | 78 | 1034.1 |
| 20260503045605 | 13 | 315 | 0.0 | 3.2 | 0.00 | 0.03 | 0.03 | 78 | 1034.2 |
| 20260503044623 | 13 | 270 | 1.6 | 3.2 | 0.00 | 0.03 | 0.03 | 77 | 1034.1 |
| 20260503043559 | 14 | 274 | 3.2 | 12.9 | 0.00 | 0.03 | 0.03 | 73 | 1034.0 |
| 20260503042556 | 15 | 299 | 3.2 | 9.7 | 0.00 | 0.03 | 0.03 | 71 | 1034.1 |
| 20260503041554 | 15 | 273 | 6.4 | 11.3 | 0.00 | 0.03 | 0.03 | 71 | 1034.1 |
| 20260503040612 | 15 | 266 | 3.2 | 6.4 | 0.00 | 0.03 | 0.03 | 69 | 1034.0 |
| 20260503035518 | 16 | 287 | 3.2 | 6.4 | 0.00 | 0.03 | 0.03 | 68 | 1034.0 |
| 20260503034536 | 16 | 270 | 1.6 | 3.2 | 0.00 | 0.03 | 0.03 | 69 | 1033.9 |
| 20260503033633 | 16 | 273 | 4.8 | 12.9 | 0.00 | 0.03 | 0.03 | 70 | 1034.0 |
| 20260503032611 | 15 | 271 | 6.4 | 11.3 | 0.00 | 0.03 | 0.03 | 70 | 1034.0 |
| 20260503031608 | 16 | 261 | 1.6 | 9.7 | 0.00 | 0.03 | 0.03 | 70 | 1034.1 |
| 20260503030610 | 15 | 268 | 6.4 | 12.9 | 0.00 | 0.03 | 0.03 | 70 | 1034.0 |
| 20260503025603 | 16 | 257 | 6.4 | 11.3 | 0.00 | 0.03 | 0.03 | 69 | 1034.1 |
| 20260503024620 | 16 | 258 | 4.8 | 11.3 | 0.00 | 0.03 | 0.03 | 68 | 1034.0 |
| 20260503023618 | 15 | 287 | 6.4 | 14.5 | 0.00 | 0.03 | 0.03 | 69 | 1034.1 |
| 20260503022555 | 15 | 279 | 6.4 | 11.3 | 0.00 | 0.03 | 0.03 | 71 | 1034.1 |
| 20260503021552 | 16 | 262 | 4.8 | 11.3 | 0.00 | 0.03 | 0.03 | 68 | 1034.2 |
| 20260503020549 | 16 | 329 | 3.2 | 11.3 | 0.00 | 0.03 | 0.03 | 69 | 1034.3 |
| 20260503015549 | 16 | 250 | 4.8 | 11.3 | 0.00 | 0.03 | 0.03 | 69 | 1034.2 |
| 20260503014545 | 15 | 284 | 8.0 | 14.5 | 0.00 | 0.03 | 0.03 | 71 | 1034.2 |
| 20260503013542 | 15 | 266 | 8.0 | 17.7 | 0.00 | 0.03 | 0.03 | 73 | 1034.2 |
| 20260503012539 | 15 | 233 | 6.4 | 17.7 | 0.00 | 0.03 | 0.03 | 72 | 1034.4 |
| 20260503011537 | 15 | 240 | 6.4 | 12.9 | 0.00 | 0.03 | 0.03 | 73 | 1034.6 |
| 20260503010534 | 15 | 276 | 6.4 | 14.5 | 0.00 | 0.03 | 0.03 | 73 | 1034.5 |
| 20260503005531 | 15 | 253 | 3.2 | 6.4 | 0.00 | 0.03 | 0.03 | 72 | 1034.7 |